This is the latest recevied weather packets stored in our database for station/object WD7OO. If no packets are shown the sender has not sent any weather packets the latest 10 day(s).
| Time | Temp. | Humidity | Pressure | Rain* | Wind** | Luminosity | Snow |
|---|---|---|---|---|---|---|---|
| 1778010234 | 12.78° C | 55% | 1009.6 hPa | 0 mm | - | 302 W/m² | - |
| 1778009929 | 12.78° C | 57% | 1009.5 hPa | 0 mm | - | 301 W/m² | - |
| 1778009627 | 12.78° C | 58% | 1009.5 hPa | 0 mm | - | 280 W/m² | - |
| 1778009324 | 12.78° C | 53% | 1009.4 hPa | 0 mm | - | 309 W/m² | - |
| 1778009023 | 12.78° C | 55% | 1009.7 hPa | 0 mm | - | 368 W/m² | - |
| 1778008720 | 13.33° C | 51% | 1009.8 hPa | 0 mm | - | 375 W/m² | - |
| 1778008419 | 12.78° C | 51% | 1009.8 hPa | 0 mm | - | 429 W/m² | - |
| 1778008115 | 12.78° C | 54% | 1009.8 hPa | 0 mm | - | 365 W/m² | - |
| 1778007810 | 12.22° C | 55% | 1009.6 hPa | 0 mm | - | 309 W/m² | - |
| 1778007506 | 12.78° C | 54% | 1009.8 hPa | 0 mm | - | 285 W/m² | - |
| 1778007203 | 13.33° C | 56% | 1009.6 hPa | 0 mm | - | 467 W/m² | - |
| 1778006899 | 13.33° C | 56% | 1009.4 hPa | 0 mm | - | 440 W/m² | - |
| 1778006596 | 13.33° C | 54% | 1009.6 hPa | 0 mm | - | 548 W/m² | - |
| 1778006293 | 13.33° C | 57% | 1009.3 hPa | 0 mm | - | 462 W/m² | - |
| 1778005990 | 13.33° C | 58% | 1009.3 hPa | 0 mm | - | 661 W/m² | - |
| 1778005687 | 12.78° C | 60% | 1009.5 hPa | 0 mm | - | 390 W/m² | - |
| 1778005384 | 12.78° C | 61% | 1009.6 hPa | 0 mm | - | 365 W/m² | - |
| 1778005080 | 12.78° C | 58% | 1009.6 hPa | 0 mm | - | 433 W/m² | - |
| 1778004778 | 12.78° C | 60% | 1009.5 hPa | 0 mm | - | 404 W/m² | - |
| 1778004474 | 13.33° C | 62% | 1009.2 hPa | 0 mm | - | 440 W/m² | - |
| 1778004170 | 13.33° C | 60% | 1009.5 hPa | 0 mm | - | 567 W/m² | - |
| 1778003867 | 12.78° C | 60% | 1009.2 hPa | 0 mm | - | 557 W/m² | - |
| 1778003564 | 12.22° C | 62% | 1009.1 hPa | 0 mm | - | 675 W/m² | - |
| 1778003260 | 12.22° C | 67% | 1009.4 hPa | 0 mm | - | 399 W/m² | - |
| 1778002957 | 11.67° C | 65% | 1009.5 hPa | 0 mm | - | 334 W/m² | - |
* Rain latest hour (hover to see other rain measurements)
** Current wind speed in m/s (hover to see current wind gust speed)